Change the Weather History Date:

Saturday, June 1, 2013

  Actual Average Record
Temperature  
Mean Temperature 54 °F 62 °F  
Max Temperature 61 °F 74 °F 93 °F (1933)
Min Temperature 46 °F 51 °F 28 °F (1888)
Degree Days  
Heating Degree Days 11 5  
Month to date heating degree days 11 5  
Since 1 June heating degree days 11 5  
Since 1 July heating degree days 9253 8734  
Cooling Degree Days 0 2  
Month to date cooling degree days 0 2  
Year to date cooling degree days 29 33  
Since 1 June cooling degree days 0 2  
Growing Degree Days 2 (Base 50)    
Moisture  
Dew Point 47 °F    
Average Humidity 80    
Maximum Humidity 93    
Minimum Humidity 66    
Precipitation  
Precipitation T in 0.11 in 1.70 in (1990)
Month to date precipitation T 0.11  
Year to date precipitation 12.90 6.92  
Snow  
Snow 0.00 in 0.00 in - ()
Month to date snowfall 0.0 0.0  
Since 1 June snowfall 0.0 0.0  
Since 1 July snowfall 68.4 50.4  
Snow Depth 0.00 in    
Sea Level Pressure  
Sea Level Pressure 29.85 in    
Wind  
Wind Speed 20 mph (North)    
Max Wind Speed 30 mph    
Max Gust Speed 37 mph    
Visibility 9 miles    
Events Rain    
T = Trace of Precipitation, MM = Missing Value Source: NWS Daily Summary

Daily Weather History Graph

Daily Weather History Graph

Search for Another Location

Airport or City:

Trip Planner

Search our weather history database for the weather conditions in past years. The results will help you decide how hot, cold, wet, or windy it might be!

Date:

Astronomy

Jun. 01, 2013 Rise Set
Actual Time 5:36 AM CDT 9:14 PM CDT
Civil Twilight 4:57 AM CDT 9:53 PM CDT
Nautical Twilight 4:06 AM CDT 10:44 PM CDT
Astronomical Twilight 2:56 AM CDT 11:55 PM CDT
Moon 1:57 AM CDT (6/1) 2:22 PM CDT (6/1)
Length of Visible Light 16h 55m
Length of Day
15h 38m
Last Quarter, 40% of the Moon is Illuminated
Jun 1
Last Quarter
Jun 8
New
Jun 16
First Quarter
Jun 23
Full
Jun 29
Last Quarter

Hourly Weather History & Observations

Time (CDT) Temp. Dew Point Humidity Pressure Visibility Wind Dir Wind Speed Gust Speed Precip Events Conditions
12:03 AM 60.8 °F 55.4 °F 82% 29.56 in 10.0 mi NNE 8.1 mph - N/A   Overcast
12:53 AM 61.0 °F 55.9 °F 83% 29.58 in 10.0 mi North 12.7 mph - N/A   Overcast
1:04 AM 60.8 °F 55.4 °F 82% 29.58 in 10.0 mi North 18.4 mph 23.0 mph N/A   Overcast
1:14 AM 59.0 °F 55.4 °F 88% 29.59 in 10.0 mi North 23.0 mph 28.8 mph N/A   Overcast
1:53 AM 57.0 °F 53.1 °F 87% 29.62 in 8.0 mi North 21.9 mph 32.2 mph N/A   Overcast
2:53 AM 54.0 °F 51.1 °F 90% 29.65 in 10.0 mi North 24.2 mph 33.4 mph 0.00 in   Overcast
3:53 AM 52.0 °F 48.9 °F 89% 29.67 in 6.0 mi North 26.5 mph 33.4 mph 0.00 in Rain Light Rain
4:53 AM 50.0 °F 46.9 °F 89% 29.69 in 10.0 mi North 20.7 mph 28.8 mph 0.00 in   Overcast
5:53 AM 50.0 °F 46.9 °F 89% 29.74 in 10.0 mi North 23.0 mph 27.6 mph N/A   Overcast
6:53 AM 48.9 °F 46.0 °F 90% 29.77 in 5.0 mi North 23.0 mph 28.8 mph N/A   Overcast
7:53 AM 48.0 °F 45.0 °F 89% 29.79 in 9.0 mi North 23.0 mph 31.1 mph 0.00 in   Overcast
8:53 AM 48.0 °F 44.1 °F 86% 29.82 in 8.0 mi North 27.6 mph 33.4 mph 0.00 in   Overcast
9:03 AM 48.2 °F 44.6 °F 87% 29.81 in 10.0 mi North 24.2 mph 35.7 mph N/A   Overcast
9:53 AM 48.0 °F 44.1 °F 86% 29.85 in 4.0 mi North 23.0 mph - N/A   Overcast
10:43 AM 50.0 °F 44.6 °F 82% 29.86 in 10.0 mi North 24.2 mph 33.4 mph N/A   Overcast
10:53 AM 50.0 °F 44.1 °F 80% 29.87 in 10.0 mi North 21.9 mph 29.9 mph N/A   Overcast
11:02 AM 50.0 °F 44.6 °F 82% 29.87 in 10.0 mi North 27.6 mph 34.5 mph N/A   Overcast
11:53 AM 51.1 °F 44.1 °F 77% 29.90 in 10.0 mi North 20.7 mph 31.1 mph N/A   Overcast
12:53 PM 53.1 °F 45.0 °F 74% 29.91 in 10.0 mi North 25.3 mph 34.5 mph N/A   Overcast
1:53 PM 55.0 °F 45.0 °F 69% 29.94 in 10.0 mi North 21.9 mph 33.4 mph N/A   Overcast
2:53 PM 53.1 °F 46.0 °F 77% 29.96 in 8.0 mi North 21.9 mph 27.6 mph 0.00 in   Overcast
3:53 PM 55.0 °F 46.0 °F 72% 29.96 in 10.0 mi North 23.0 mph 31.1 mph N/A   Overcast
4:01 PM 55.4 °F 46.4 °F 72% 29.96 in 10.0 mi North 21.9 mph 29.9 mph N/A   Overcast
4:31 PM 55.4 °F 46.4 °F 72% 29.96 in 10.0 mi North 23.0 mph - N/A   Overcast
4:44 PM 55.4 °F 46.4 °F 72% 29.96 in 10.0 mi North 24.2 mph 32.2 mph N/A   Overcast
4:53 PM 55.0 °F 46.0 °F 72% 29.98 in 10.0 mi North 20.7 mph 29.9 mph N/A   Overcast
5:53 PM 55.0 °F 46.0 °F 72% 30.00 in 10.0 mi North 21.9 mph 29.9 mph N/A   Overcast
6:53 PM 55.0 °F 46.0 °F 72% 30.01 in 10.0 mi NNW 20.7 mph 32.2 mph N/A   Overcast
7:53 PM 55.9 °F 44.1 °F 64% 30.03 in 10.0 mi North 20.7 mph 28.8 mph N/A   Partly Cloudy
8:53 PM 53.1 °F 44.1 °F 71% 30.04 in 10.0 mi NNW 15.0 mph - N/A   Clear
9:53 PM 51.1 °F 43.0 °F 74% 30.05 in 10.0 mi North 12.7 mph - N/A   Clear
10:53 PM 50.0 °F 43.0 °F 77% 30.07 in 10.0 mi North 9.2 mph - N/A   Clear
11:53 PM 48.0 °F 43.0 °F 83% 30.09 in 10.0 mi NW 8.1 mph - N/A   Clear